Overview Statistics Trail Chart Weather Telemetry Raw packets
 

This is the latest recevied weather packets stored in our database for station/object IU5JAE-13. If no packets are shown the sender has not sent any weather packets the latest 10 day(s).

<< 5 6 7 8 9 10 11 >>
Time Temp. Humidity Pressure Rain* Wind** Luminosity Snow
1788614719 28.89° C 63% 1020.6 hPa 0 mm - 416 W/m² -
1788614117 28.89° C 62% 1020.7 hPa 0 mm - 439 W/m² -
1788613534 28.33° C 63% 1020.7 hPa 0 mm - 458 W/m² -
1788612932 28.33° C 62% 1020.7 hPa 0 mm - 479 W/m² -
1788612330 28.33° C 63% 1020.9 hPa 0 mm - 494 W/m² -
1788611727 28.89° C 62% 1020.9 hPa 0 mm - 517 W/m² -
1788611125 28.33° C 61% 1021 hPa 0 mm - 529 W/m² -
1788610522 28.89° C 60% 1020.9 hPa 0 mm - 556 W/m² -
1788609920 28.33° C 58% 1021 hPa 0 mm - 567 W/m² -
1788609334 27.78° C 57% 1021.1 hPa 0 mm - 573 W/m² -
1788608735 28.33° C 54% 1021.1 hPa 0 mm - 579 W/m² -
1788608133 28.33° C 56% 1021.2 hPa 0 mm - 583 W/m² -
1788607530 27.78° C 57% 1021.2 hPa 0 mm - 582 W/m² -
1788606928 27.22° C 61% 1021.2 hPa 0 mm - 581 W/m² -
1788606326 27.78° C 63% 1021.1 hPa 0 mm - 581 W/m² -
1788605723 27.22° C 65% 1021 hPa 0 mm - 582 W/m² -
1788605121 26.67° C 66% 1021.1 hPa 0 mm - 571 W/m² -
1788604518 26.67° C 66% 1021.2 hPa 0 mm - 580 W/m² -
1788603916 26.67° C 65% 1021 hPa 0 mm - 565 W/m² -
1788603334 26.67° C 65% 1021.1 hPa 0 mm - 553 W/m² -
1788602731 26.67° C 67% 1021.1 hPa 0 mm - 543 W/m² -
1788602129 26.67° C 66% 1021.1 hPa 0 mm - 522 W/m² -
1788601526 26.67° C 67% 1021.2 hPa 0 mm - 536 W/m² -
1788599719 25.56° C 65% 1021.1 hPa 0 mm - 482 W/m² -
1788599117 25.56° C 65% 1021 hPa 0 mm - 486 W/m² -

* Rain latest hour (hover to see other rain measurements)
** Current wind speed in m/s (hover to see current wind gust speed)